When you browse on this site, cookies collect data to enhance your experience and personalize the content and advertising you see.
Visit our Privacy Policy to learn more. By continuing to use the site, you agree to this use of cookies and data.
  • In Germany
  • List of Countries
  • For 7 days
  • Water Temperature
  • Satellite Maps
  • Weather Map
  • Weather Widgets
  • user-avatar
    Login

    Hourly Weather Lubango

    Today, 21 July, Sunday

    Time Temperature Precipitation Wind Pressure Humidity
    00:00 +12°C° 0 mm 1 mps 609 mmHg 39%
    01:00 +11°C° 0 mm 1 mps 608 mmHg 38%
    02:00 +11°C° 0 mm 1 mps 608 mmHg 37%
    03:00 +11°C° 0 mm 1 mps 608 mmHg 37%
    04:00 +11°C° 0 mm 1 mps 609 mmHg 36%
    05:00 +11°C° 0 mm 1 mps 609 mmHg 33%
    06:00 +12°C° 0 mm 1 mps 609 mmHg 30%
    07:00 +12°C° 0 mm 1 mps 609 mmHg 26%
    08:00 +15°C° 0 mm 2 mps 611 mmHg 22%
    09:00 +19°C° 0 mm 3 mps 612 mmHg 18%
    10:00 +24°C° 0 mm 3 mps 614 mmHg 14%
    11:00 +25°C° 0 mm 3 mps 614 mmHg 13%
    12:00 +26°C° 0 mm 3 mps 613 mmHg 12%
    13:00 +27°C° 0 mm 3 mps 613 mmHg 11%
    14:00 +27°C° 0 mm 3 mps 613 mmHg 12%
    15:00 +26°C° 0 mm 2 mps 612 mmHg 12%
    16:00 +26°C° 0 mm 2 mps 612 mmHg 13%
    17:00 +21°C° 0 mm 2 mps 610 mmHg 28%
    18:00 +17°C° 0 mm 2 mps 609 mmHg 43%
    19:00 +13°C° 0 mm 2 mps 608 mmHg 57%
    20:00 +13°C° 0 mm 2 mps 608 mmHg 56%
    21:00 +12°C° 0 mm 1 mps 609 mmHg 54%
    22:00 +12°C° 0 mm 1 mps 609 mmHg 52%
    23:00 +12°C° 0 mm 1 mps 609 mmHg 48%

    Tomorrow, 22 July, Monday

    Time Temperature Precipitation Wind Pressure Humidity
    00:00 +12°C° 0 mm 1 mps 609 mmHg 44%
    01:00 +12°C° 0 mm 1 mps 608 mmHg 40%
    02:00 +12°C° 0 mm 1 mps 608 mmHg 39%
    03:00 +12°C° 0 mm 1 mps 608 mmHg 38%
    04:00 +12°C° 0 mm 1 mps 608 mmHg 37%
    05:00 +12°C° 0 mm 1 mps 608 mmHg 35%
    06:00 +12°C° 0 mm 1 mps 608 mmHg 34%
    07:00 +12°C° 0 mm 1 mps 609 mmHg 33%
    08:00 +16°C° 0 mm 2 mps 610 mmHg 27%
    09:00 +19°C° 0 mm 3 mps 612 mmHg 21%
    10:00 +23°C° 0 mm 4 mps 613 mmHg 15%
    11:00 +25°C° 0 mm 3 mps 613 mmHg 14%
    12:00 +26°C° 0 mm 3 mps 612 mmHg 13%
    13:00 +27°C° 0 mm 3 mps 612 mmHg 12%
    14:00 +27°C° 0 mm 3 mps 611 mmHg 12%
    15:00 +27°C° 0 mm 2 mps 611 mmHg 13%
    16:00 +26°C° 0 mm 2 mps 610 mmHg 14%
    17:00 +21°C° 0 mm 2 mps 609 mmHg 25%
    18:00 +18°C° 0 mm 2 mps 608 mmHg 36%
    19:00 +14°C° 0 mm 2 mps 607 mmHg 46%
    20:00 +14°C° 0 mm 1 mps 607 mmHg 44%
    21:00 +13°C° 0 mm 1 mps 608 mmHg 42%
    22:00 +13°C° 0 mm 1 mps 608 mmHg 40%
    23:00 +13°C° 0 mm 1 mps 608 mmHg 38%

    Day after tomorrow, 23 July, Tuesday

    Time Temperature Precipitation Wind Pressure Humidity
    00:00 +13°C° 0 mm 1 mps 608 mmHg 36%
    01:00 +13°C° 0 mm 1 mps 608 mmHg 34%
    02:00 +13°C° 0 mm 1 mps 608 mmHg 34%
    03:00 +13°C° 0 mm 1 mps 607 mmHg 33%
    04:00 +13°C° 0 mm 1 mps 607 mmHg 33%
    05:00 +13°C° 0 mm 1 mps 608 mmHg 33%
    06:00 +13°C° 0 mm 1 mps 608 mmHg 32%
    07:00 +13°C° 0 mm 1 mps 608 mmHg 31%
    08:00 +18°C° 0 mm 1 mps 610 mmHg 26%
    09:00 +21°C° 0 mm 1 mps 611 mmHg 21%
    10:00 +25°C° 0 mm 2 mps 613 mmHg 15%
    11:00 +26°C° 0 mm 2 mps 613 mmHg 15%
    12:00 +27°C° 0 mm 3 mps 612 mmHg 14%
    13:00 +27°C° 0 mm 3 mps 612 mmHg 14%
    14:00 +27°C° 0 mm 3 mps 611 mmHg 15%
    15:00 +26°C° 0 mm 3 mps 610 mmHg 15%
    16:00 +25°C° 0 mm 3 mps 610 mmHg 16%
    17:00 +21°C° 0 mm 3 mps 609 mmHg 24%
    18:00 +17°C° 0 mm 2 mps 608 mmHg 31%
    19:00 +14°C° 0 mm 2 mps 607 mmHg 38%
    20:00 +14°C° 0 mm 2 mps 607 mmHg 37%
    21:00 +13°C° 0 mm 1 mps 607 mmHg 36%
    22:00 +13°C° 0 mm 1 mps 608 mmHg 35%
    23:00 +13°C° 0 mm 1 mps 607 mmHg 33%

    24 July, Wednesday

    Time Temperature Precipitation Wind Pressure Humidity
    00:00 +13°C° 0 mm 1 mps 607 mmHg 31%
    01:00 +13°C° 0 mm 1 mps 607 mmHg 28%
    02:00 +13°C° 0 mm 1 mps 607 mmHg 27%
    03:00 +13°C° 0 mm 1 mps 606 mmHg 26%
    04:00 +12°C° 0 mm 1 mps 606 mmHg 25%
    05:00 +13°C° 0 mm 1 mps 606 mmHg 25%
    06:00 +13°C° 0 mm 1 mps 607 mmHg 24%
    07:00 +13°C° 0 mm 1 mps 607 mmHg 24%
    08:00 +18°C° 0 mm 1 mps 609 mmHg 21%
    09:00 +21°C° 0 mm 1 mps 610 mmHg 17%
    10:00 +25°C° 0 mm 1 mps 612 mmHg 14%
    11:00 +26°C° 0 mm 2 mps 612 mmHg 13%
    12:00 +28°C° 0 mm 2 mps 612 mmHg 12%
    13:00 +29°C° 0 mm 2 mps 611 mmHg 11%
    14:00 +28°C° 0 mm 2 mps 611 mmHg 12%
    15:00 +28°C° 0 mm 3 mps 610 mmHg 12%
    16:00 +27°C° 0 mm 3 mps 610 mmHg 12%
    17:00 +23°C° 0 mm 2 mps 609 mmHg 18%
    18:00 +19°C° 0 mm 2 mps 608 mmHg 25%
    19:00 +15°C° 0 mm 2 mps 607 mmHg 31%
    20:00 +15°C° 0 mm 2 mps 607 mmHg 30%
    21:00 +15°C° 0 mm 1 mps 608 mmHg 29%
    22:00 +14°C° 0 mm 1 mps 608 mmHg 28%
    23:00 +14°C° 0 mm 1 mps 608 mmHg 28%

    25 July, Thursday

    Time Temperature Precipitation Wind Pressure Humidity
    00:00 +14°C° 0 mm 1 mps 608 mmHg 27%
    01:00 +14°C° 0 mm 1 mps 608 mmHg 26%
    02:00 +14°C° 0 mm 1 mps 608 mmHg 27%
    03:00 +14°C° 0 mm 1 mps 608 mmHg 27%
    04:00 +13°C° 0 mm 1 mps 608 mmHg 27%
    05:00 +13°C° 0 mm 1 mps 608 mmHg 27%
    06:00 +13°C° 0 mm 1 mps 609 mmHg 26%
    07:00 +13°C° 0 mm 1 mps 609 mmHg 25%
    08:00 +18°C° 0 mm 1 mps 610 mmHg 21%
    09:00 +21°C° 0 mm 2 mps 612 mmHg 17%
    10:00 +25°C° 0 mm 2 mps 613 mmHg 13%
    11:00 +26°C° 0 mm 2 mps 613 mmHg 13%
    12:00 +27°C° 0 mm 2 mps 613 mmHg 13%
    13:00 +28°C° 0 mm 2 mps 613 mmHg 12%
    14:00 +28°C° 0 mm 2 mps 612 mmHg 13%
    15:00 +27°C° 0 mm 2 mps 612 mmHg 13%
    16:00 +27°C° 0 mm 2 mps 611 mmHg 14%
    17:00 +23°C° 0 mm 2 mps 610 mmHg 21%
    18:00 +19°C° 0 mm 2 mps 609 mmHg 28%
    19:00 +15°C° 0 mm 2 mps 608 mmHg 35%
    20:00 +15°C° 0 mm 2 mps 609 mmHg 33%
    21:00 +15°C° 0 mm 2 mps 609 mmHg 32%
    22:00 +15°C° 0 mm 1 mps 609 mmHg 31%
    23:00 +15°C° 0 mm 2 mps 609 mmHg 30%

    26 July, Friday

    Time Temperature Precipitation Wind Pressure Humidity
    00:00 +15°C° 0 mm 2 mps 609 mmHg 30%
    01:00 +14°C° 0 mm 2 mps 609 mmHg 30%
    02:00 +14°C° 0 mm 2 mps 609 mmHg 29%
    03:00 +14°C° 0 mm 2 mps 609 mmHg 29%
    04:00 +14°C° 0 mm 2 mps 608 mmHg 29%
    05:00 +14°C° 0 mm 2 mps 609 mmHg 28%
    06:00 +14°C° 0 mm 2 mps 609 mmHg 28%
    07:00 +13°C° 0 mm 3 mps 609 mmHg 27%
    08:00 +17°C° 0 mm 4 mps 610 mmHg 22%
    09:00 +21°C° 0 mm 5 mps 612 mmHg 16%
    10:00 +24°C° 0 mm 6 mps 613 mmHg 11%
    11:00 +26°C° 0 mm 5 mps 613 mmHg 10%
    12:00 +28°C° 0 mm 5 mps 612 mmHg 10%
    13:00 +29°C° 0 mm 4 mps 612 mmHg 9%
    14:00 +29°C° 0 mm 4 mps 612 mmHg 9%
    15:00 +28°C° 0 mm 3 mps 611 mmHg 9%
    16:00 +28°C° 0 mm 2 mps 611 mmHg 9%
    17:00 +25°C° 0 mm 2 mps 610 mmHg 13%
    18:00 +20°C° 0 mm 2 mps 609 mmHg 18%
    19:00 +17°C° 0 mm 2 mps 608 mmHg 22%
    20:00 +16°C° 0 mm 2 mps 608 mmHg 23%
    21:00 +16°C° 0 mm 2 mps 608 mmHg 24%
    22:00 +15°C° 0 mm 2 mps 608 mmHg 26%
    23:00 +15°C° 0 mm 2 mps 608 mmHg 24%
    Show more